When you browse on this site, cookies collect data to enhance your experience and personalize the content and advertising you see.
Visit our Privacy Policy to learn more. By continuing to use the site, you agree to this use of cookies and data.
  • In United Kingdom
  • List of Countries
  • For 7 days
  • Water Temperature
  • Weather Map
  • Weather Widgets
  • user-avatar
    Login

    Hourly Weather Cormaia

    Today, 28 January, Tuesday

    Time Temperature Precipitation Wind Pressure Humidity
    00:00 +1°C° 0 mm 0 mps 700 mmHg 94%
    01:00 +1°C° 0 mm 0 mps 700 mmHg 95%
    02:00 +1°C° 0 mm 0 mps 700 mmHg 96%
    03:00 +1°C° 0 mm 0 mps 700 mmHg 96%
    04:00 +1°C° 0 mm 0 mps 700 mmHg 97%
    05:00 +1°C° 0 mm 0 mps 700 mmHg 98%
    06:00 +1°C° 0 mm 0 mps 700 mmHg 98%
    07:00 +1°C° 0 mm 0 mps 699 mmHg 98%
    08:00 +2°C° 0 mm 1 mps 699 mmHg 98%
    09:00 +3°C° 0 mm 1 mps 699 mmHg 96%
    10:00 +3°C° 0 mm 1 mps 699 mmHg 94%
    11:00 +3°C° 0 mm 1 mps 699 mmHg 93%
    12:00 +4°C° 0 mm 1 mps 698 mmHg 92%
    13:00 +4°C° 0 mm 1 mps 697 mmHg 91%
    14:00 +3°C° 0 mm 2 mps 697 mmHg 91%
    15:00 +2°C° 0 mm 2 mps 696 mmHg 93%
    16:00 +3°C° 0 mm 1 mps 696 mmHg 94%
    17:00 +3°C° 0 mm 1 mps 695 mmHg 95%
    18:00 +2°C° 0.3 mm 1 mps 695 mmHg 96%
    19:00 +2°C° 0.3 mm 1 mps 695 mmHg 96%
    20:00 +2°C° 0.3 mm 1 mps 695 mmHg 97%
    21:00 +1°C° 0.7 mm 2 mps 695 mmHg 97%
    22:00 +1°C° 0.7 mm 2 mps 694 mmHg 97%
    23:00 +2°C° 0.7 mm 2 mps 693 mmHg 98%

    Tomorrow, 29 January, Wednesday

    Time Temperature Precipitation Wind Pressure Humidity
    00:00 +2°C° 1.1 mm 2 mps 693 mmHg 98%
    01:00 +2°C° 1.1 mm 2 mps 692 mmHg 98%
    02:00 +3°C° 1.1 mm 2 mps 691 mmHg 97%
    03:00 +1°C° 1.8 mm 3 mps 691 mmHg 97%
    04:00 +1°C° 1.8 mm 3 mps 690 mmHg 98%
    05:00 0°C° 1.8 mm 4 mps 690 mmHg 98%
    06:00 0°C° 0.5 mm 4 mps 691 mmHg 97%
    07:00 -1°C° 0.5 mm 4 mps 691 mmHg 97%
    08:00 0°C° 0.5 mm 3 mps 692 mmHg 97%
    09:00 -2°C° 0.2 mm 4 mps 692 mmHg 94%
    10:00 -2°C° 0.2 mm 4 mps 693 mmHg 91%
    11:00 -2°C° 0.2 mm 4 mps 693 mmHg 89%
    12:00 -2°C° 0.1 mm 4 mps 694 mmHg 86%
    13:00 -2°C° 0.1 mm 4 mps 694 mmHg 82%
    14:00 -1°C° 0.1 mm 4 mps 695 mmHg 79%
    15:00 -2°C° 0.1 mm 4 mps 695 mmHg 82%
    16:00 -2°C° 0.1 mm 3 mps 695 mmHg 85%
    17:00 -2°C° 0.1 mm 2 mps 695 mmHg 88%
    18:00 -2°C° 0.2 mm 2 mps 695 mmHg 90%
    19:00 -3°C° 0.2 mm 2 mps 696 mmHg 92%
    20:00 -3°C° 0.2 mm 2 mps 696 mmHg 95%
    21:00 -3°C° 1.1 mm 2 mps 696 mmHg 95%
    22:00 -2°C° 1.1 mm 2 mps 696 mmHg 96%
    23:00 -2°C° 1.1 mm 3 mps 696 mmHg 97%

    Day after tomorrow, 30 January, Thursday

    Time Temperature Precipitation Wind Pressure Humidity
    00:00 -2°C° 0.8 mm 3 mps 697 mmHg 97%
    01:00 -3°C° 0.8 mm 2 mps 697 mmHg 97%
    02:00 -3°C° 0.8 mm 2 mps 697 mmHg 96%
    03:00 -3°C° 0.5 mm 2 mps 697 mmHg 97%
    04:00 -3°C° 0.5 mm 2 mps 697 mmHg 97%
    05:00 -3°C° 0.5 mm 2 mps 697 mmHg 97%
    06:00 -3°C° 0.3 mm 2 mps 698 mmHg 97%
    07:00 -3°C° 0.3 mm 2 mps 698 mmHg 97%
    08:00 -3°C° 0.3 mm 2 mps 698 mmHg 97%
    09:00 -3°C° 0.1 mm 2 mps 698 mmHg 95%
    10:00 -3°C° 0.1 mm 2 mps 699 mmHg 93%
    11:00 -2°C° 0.1 mm 2 mps 699 mmHg 92%
    12:00 -2°C° 0.1 mm 2 mps 699 mmHg 91%
    13:00 -2°C° 0.1 mm 3 mps 699 mmHg 90%
    14:00 -2°C° 0.1 mm 3 mps 699 mmHg 89%
    15:00 -2°C° 0.1 mm 2 mps 699 mmHg 90%
    16:00 -2°C° 0.1 mm 2 mps 699 mmHg 92%
    17:00 -3°C° 0.1 mm 2 mps 699 mmHg 94%
    18:00 -3°C° 0.2 mm 2 mps 700 mmHg 94%
    19:00 -3°C° 0.2 mm 2 mps 700 mmHg 94%
    20:00 -3°C° 0.2 mm 2 mps 700 mmHg 94%
    21:00 -3°C° 0.4 mm 2 mps 700 mmHg 95%
    22:00 -3°C° 0.4 mm 2 mps 700 mmHg 96%
    23:00 -4°C° 0.4 mm 2 mps 699 mmHg 97%

    31 January, Friday

    Time Temperature Precipitation Wind Pressure Humidity
    00:00 -4°C° 0.3 mm 2 mps 699 mmHg 97%
    01:00 -4°C° 0.3 mm 2 mps 699 mmHg 97%
    02:00 -4°C° 0.3 mm 2 mps 699 mmHg 97%
    03:00 -4°C° 0.3 mm 2 mps 698 mmHg 97%
    04:00 -3°C° 0.3 mm 2 mps 698 mmHg 96%
    05:00 -3°C° 0.3 mm 2 mps 697 mmHg 96%
    06:00 -3°C° 0.2 mm 2 mps 697 mmHg 96%
    07:00 -3°C° 0.2 mm 2 mps 697 mmHg 95%
    08:00 -1°C° 0.2 mm 1 mps 696 mmHg 95%
    09:00 -2°C° 0.5 mm 2 mps 696 mmHg 95%
    10:00 -2°C° 0.5 mm 3 mps 695 mmHg 95%
    11:00 -1°C° 0.5 mm 3 mps 694 mmHg 95%
    12:00 -1°C° 2.1 mm 3 mps 694 mmHg 96%
    13:00 -1°C° 2.1 mm 2 mps 694 mmHg 96%
    14:00 -1°C° 2.1 mm 2 mps 693 mmHg 97%
    15:00 -1°C° 1.4 mm 2 mps 693 mmHg 97%
    16:00 -1°C° 1.4 mm 2 mps 693 mmHg 97%
    17:00 +1°C° 1.4 mm 1 mps 694 mmHg 98%
    18:00 +2°C° 0.3 mm 1 mps 694 mmHg 98%
    19:00 +2°C° 0.3 mm 1 mps 695 mmHg 98%
    20:00 +2°C° 0.3 mm 1 mps 696 mmHg 98%
    21:00 +2°C° 0.1 mm 1 mps 697 mmHg 99%
    22:00 +3°C° 0.1 mm 1 mps 697 mmHg 99%
    23:00 +3°C° 0.1 mm 1 mps 698 mmHg 99%

    1 February, Saturday

    Time Temperature Precipitation Wind Pressure Humidity
    00:00 +3°C° 0 mm 1 mps 698 mmHg 99%
    01:00 +3°C° 0 mm 1 mps 699 mmHg 99%
    02:00 +2°C° 0 mm 1 mps 699 mmHg 98%
    03:00 +2°C° 0 mm 1 mps 699 mmHg 98%
    04:00 +2°C° 0 mm 1 mps 699 mmHg 98%
    05:00 +2°C° 0 mm 1 mps 700 mmHg 98%
    06:00 +2°C° 0 mm 1 mps 700 mmHg 98%
    07:00 +2°C° 0 mm 1 mps 700 mmHg 98%
    08:00 +2°C° 0 mm 1 mps 701 mmHg 98%
    09:00 +2°C° 0 mm 1 mps 701 mmHg 98%
    10:00 +3°C° 0 mm 1 mps 701 mmHg 98%
    11:00 +3°C° 0 mm 1 mps 701 mmHg 99%
    12:00 +3°C° 0 mm 1 mps 701 mmHg 99%
    13:00 +3°C° 0 mm 1 mps 700 mmHg 99%
    14:00 +3°C° 0 mm 1 mps 700 mmHg 99%
    15:00 +3°C° 0.4 mm 1 mps 700 mmHg 99%
    16:00 +3°C° 0.4 mm 1 mps 700 mmHg 99%
    17:00 +3°C° 0.4 mm 1 mps 700 mmHg 99%
    18:00 +3°C° 0.1 mm 1 mps 699 mmHg 99%
    19:00 +3°C° 0.1 mm 1 mps 699 mmHg 98%
    20:00 +4°C° 0.1 mm 1 mps 699 mmHg 98%
    21:00 +4°C° 0.1 mm 1 mps 699 mmHg 98%
    22:00 +4°C° 0.1 mm 1 mps 698 mmHg 98%
    23:00 +3°C° 0.1 mm 2 mps 698 mmHg 98%

    2 February, Sunday

    Time Temperature Precipitation Wind Pressure Humidity
    00:00 +3°C° 0.2 mm 2 mps 698 mmHg 98%
    01:00 +3°C° 0.2 mm 2 mps 697 mmHg 99%
    02:00 +3°C° 0.2 mm 2 mps 697 mmHg 99%
    03:00 +3°C° 0.8 mm 2 mps 696 mmHg 99%
    04:00 +3°C° 0.8 mm 2 mps 696 mmHg 99%
    05:00 +3°C° 0.8 mm 2 mps 695 mmHg 99%
    06:00 +3°C° 1.2 mm 2 mps 695 mmHg 99%
    07:00 +3°C° 1.2 mm 2 mps 695 mmHg 99%
    08:00 +3°C° 1.2 mm 2 mps 695 mmHg 99%
    09:00 +3°C° 0.5 mm 2 mps 696 mmHg 99%
    10:00 +2°C° 0.5 mm 3 mps 697 mmHg 99%
    11:00 +1°C° 0.5 mm 3 mps 697 mmHg 98%
    12:00 +1°C° 0.3 mm 3 mps 698 mmHg 98%
    13:00 +2°C° 0.3 mm 2 mps 698 mmHg 99%
    14:00 +2°C° 0.3 mm 2 mps 698 mmHg 99%
    15:00 +2°C° 0.1 mm 2 mps 699 mmHg 98%
    16:00 +2°C° 0.1 mm 2 mps 700 mmHg 98%
    17:00 +2°C° 0.1 mm 2 mps 700 mmHg 97%
    18:00 +1°C° 0 mm 2 mps 701 mmHg 97%
    19:00 +1°C° 0 mm 2 mps 701 mmHg 97%
    20:00 -1°C° 0 mm 2 mps 701 mmHg 97%
    21:00 -1°C° 0.2 mm 2 mps 702 mmHg 97%
    22:00 +1°C° 0.2 mm 1 mps 702 mmHg 97%
    23:00 +1°C° 0.2 mm 1 mps 702 mmHg 98%
    Show more